Location: Unspecified
(52.2333°N, 0.0000°E)
Time: 07:54:42
(UTC+00:00)

Tiros 1 - Visible Passes

Search period start: 04 April 2026 00:00
Search period end: 14 April 2026 00:00
Orbit: 618 x 650 km, 48.4° (Epoch: 28 March)

Date Brightness Start Highest point End Pass type
(mag) Time Alt. Az. Time Alt. Az. Time Alt. Az.
4 Apr 8.3 20:03:58 10° W 20:08:09 32° SSW 20:11:01 17° SSE visible
4 Apr 9.6 21:47:47 10° WSW 21:48:24 11° SW 21:48:24 11° SW visible
5 Apr 8.9 20:25:46 10° W 20:29:21 22° SSW 20:31:42 15° S visible
6 Apr 9.4 20:48:14 10° WSW 20:50:26 13° SW 20:52:25 11° SSW visible
7 Apr 8.8 19:26:54 10° W 19:30:43 25° SSW 19:34:32 10° SSE visible
8 Apr 9.5 19:49:03 10° WSW 19:51:50 16° SW 19:54:35 10° S visible
